Location: İstanbul
(41.0082°N, 28.9784°E)
Time: 08:07:13
(UTC+03:00)

AO-91 - Visible Passes

Search period start: 16 April 2024 00:00
Search period end: 26 April 2024 00:00
Orbit: 442 x 743 km, 97.6° (Epoch: 15 April)

Date Brightness Start Highest point End Pass type
(mag) Time Alt. Az. Time Alt. Az. Time Alt. Az.
19 Apr ? 22:50:51 10° N 22:51:02 11° N 22:51:02 11° N visible
20 Apr ? 22:59:34 10° N 22:59:53 12° N 22:59:53 12° N visible
21 Apr ? 23:08:16 10° N 23:08:45 13° N 23:08:45 13° N visible
22 Apr ? 23:17:00 10° N 23:17:34 14° NNW 23:17:34 14° NNW visible
23 Apr ? 23:25:47 10° NNW 23:26:23 14° NNW 23:26:23 14° NNW visible
24 Apr ? 23:34:35 10° NNW 23:35:10 13° NNW 23:35:10 13° NNW visible
25 Apr ? 22:07:21 10° NE 22:07:22 10° NE 22:07:22 10° NE visible
25 Apr ? 23:43:27 10° NNW 23:43:57 12° NW 23:43:57 12° NW visible
